Location: Newark
(39.0622°N, 106.5590°E)
Time: 21:00:01
(UTC+00:00)

Courier 1B - Pass Details

Date: 01 February 2020
Orbit: 962 x 1209 km, 28.3° (Epoch: 27 February)

Event Time Altitude Azimuth Distance (km) Brightness Sun altitude
Rises 18:42:58 0° 252° (WSW) 3,700 - -59.7°
Reaches altitude 10° 18:45:49 10° 243° (WSW) 2,781 - -59.3°
Maximum altitude 18:51:48 34° 181° (S) 1,650 - -58.4°
Drops below altitude 10° 18:58:07 10° 119° (ESE) 2,938 - -57.4°
Sets 19:01:13 0° 110° (ESE) 3,937 - -56.9°
